Regional Weather Roundup
Issued by NWS Northern Indiana

Home | Current Version | Previous Version | Text Only | Print | Product List | Glossary Off
Versions: 1 2 3 4 5 6 7 8 9 10 11 12 13 14 15 16 17 18 19 20 21 22 23 24 25 26 27 28 29 30 31 32 33 34 35 36 37 38 39 40 41 42 43 44 45 46 47 48 49 50

000
ASUS43 KIWX 050310
RWRIWX

KIWX WEATHER ROUNDUP
NATIONAL WEATHER SERVICE NORTHERN INDIANA
1100 PM EDT SAT JUL 04 2015

NOTE: "FAIR" INDICATES FEW OR NO CLOUDS BELOW 12,000 FEET WITH NO
SIGNIFICANT WEATHER AND/OR OBSTRUCTIONS TO VISIBILITY.

* THESE STATIONS ARE NOT UNDER NWS QUALITY CONTROL. THEY ALSO MAY NOT
  REPORT WEATHER SUCH AS PRECIPITATION OR FOG.

INZ001>027-050400-
NORTHERN INDIANA

CITY           SKY/WX    TMP DP  RH WIND       PRES   REMARKS
GARY*          CLEAR    N/A N/A N/A CALM      30.03R
VALPARAISO     CLEAR     69  60  73 SE6       30.04R
MICHIGAN CITY* CLEAR     63  63 100 CALM      30.04R FOG
LAPORTE*       CLEAR     66  65  97 CALM      30.04R
KNOX*          CLEAR     64  63  94 CALM      30.03R
SOUTH BEND     CLEAR     66  58  75 CALM      30.04R
GOSHEN         CLEAR     65  60  84 CALM      30.04R
MONTICELLO*    CLEAR     68  65  90 CALM      30.03R FOG
LOGANSPORT*    CLEAR     64  61  88 CALM      30.06R
ROCHESTER*     CLEAR     66  63  88 CALM      30.05R
WARSAW*          N/A     63  61  94 CALM      30.05R
ANGOLA*          N/A     64  61  88 CALM      30.05R
FORT WAYNE     CLEAR     67  61  81 CALM      30.05R
HUNTINGTON*    CLEAR     65  60  81 CALM      30.05R
PERU/GRISSOM   CLEAR     68  63  83 SE2       30.04R
MARION*        CLEAR     66  60  80 CALM      30.06R

$$
INZ028>050-050400-
CENTRAL INDIANA

CITY           SKY/WX    TMP DP  RH WIND       PRES   REMARKS
LAFAYETTE      CLEAR     66  62  87 CALM      30.03R
KOKOMO*        CLEAR     66  61  82 CALM      30.05R
MUNCIE*        CLEAR     68  60  75 CALM      30.06R
INDIANAPOLIS   MOCLDY    72  58  61 NE7       30.02R

$$
MIZ043>046-050>051-056>058-064>065-071>073-077>080-050400-
SOUTHWEST LOWER MICHIGAN

CITY           SKY/WX    TMP DP  RH WIND       PRES   REMARKS
BATTLE CREEK   CLEAR     67  59  75 SW3       30.05R HAZE
BENTON HARBOR  CLEAR     59  56  89 E3        30.04R FOG
COLDWATER*     CLEAR     63  59  86 W3        30.05R
HILLSDALE*     CLEAR     63  62  96 CALM      30.06R
HOLLAND        CLEAR     63  59  87 CALM      30.03R
GRAND RAPIDS   PTCLDY    69  59  70 W3        30.04R
KALAMAZOO      CLEAR     65  58  78 S3        30.04R
STURGIS*       CLEAR     64  61  88 CALM      30.05R
THREE RIVERS*  FAIR      65  59  80 CALM      30.05R

$$
OHZ001>008-015>018-024>025-050400-
NORTHWEST OHIO

CITY           SKY/WX    TMP DP  RH WIND       PRES   REMARKS
DEFIANCE       CLEAR     65  61  87 CALM      30.04R
FINDLAY        CLEAR     68  58  70 E5        30.04R
TOLEDO EXPRESS CLEAR     62  56  80 CALM      30.04R
TOLEDO METCALF CLEAR     65  55  70 SE5       30.05R
LIMA           CLEAR     63  60  90 CALM      30.05R

$$
AND FOR LAKE MICHIGAN COASTAL AND OPEN LAKE BUOY OBSERVATIONS

STATION/POSITION TEMP    WIND        PRES    VSBY  WAVE
                 AIR SEA DIR/SP/G                  HT/PER
                 (F)     (DEG/KT/KT) (MB)    (MI)  (FT/S)
CALUMET HARBOR    69      70/  4/  5   N/A
MICHIGAN CITY     72      80/  3/  3   N/A
BURNS HARBOR      68      70/  6/  8 1016.9R
SAINT JOSEPH      66      CALM  /  2   N/A
4 MI NW BRIDGMAN  66 65                N/A           0
MICHIGAN CITY     67 65  140/  4/  4   N/A           0

$$
&&


USA.gov is the U.S. government's official web portal to all federal, state and local government web resources and services.